Tracking 31027 objects as of 19-Jul-2025
HD Live streaming from Space Station
objects crossing your sky now

STARLINK-5828

Track STARLINK-5828 now!
10-day predictions
STARLINK-5828 is classified as:


NORAD ID: 57070
Int'l Code: 2023-088Y
Perigee: 564.9 km
Apogee: 567.5 km
Inclination: 43.0 °
Period: 95.8 minutes
Semi major axis: 6937 km
RCS: Unknown
Launch date: June 22, 2023
Source: United States (US)
Launch site: AIR FORCE WESTERN TEST RANGE (AFWTR)
Your satellite tracking list
NOAA 16 DEB
Track 1 satellite(s)




NASA's NSSDC Master Catalog

Two Line Element Set (TLE):
1 57070U 23088Y   25199.55658847  .00000079  00000-0  20899-4 0  9992
2 57070  43.0035 287.2349 0001869 283.3670  76.6964 15.02535208115291
Source of the keplerian elements: AFSPC